Wind_Speed
3 5 7 11 13 16 19 22 24 25 27 29 32 30 26 26 24 24 24 21 19 16 16 16 11 4 6 8 9 11 14 13 11 11 11 12 13 17 20 22 24 26 33 34
8 7 8 9 12 14 17 19 21 23 24 26 29 32 29 25 24 23 22 23 24 23 19 15 14 12 7 2 4 7 11 13 13 14 15 14 15 15 13 13 14 19 27 22
12 11 11 11 11 12 14 17 19 20 21 23 25 27 29 25 23 23 24 24 23 25 24 22 17 14 12 11 9 8 7 9 13 17 16 15 17 14 6 20 19 8 27 15
17 16 15 15 14 14 14 14 16 18 19 21 22 23 25 27 24 23 22 23 23 23 23 24 23 23 22 21 20 17 16 14 13 14 16 19 23 22 25 26 33 24 21 33
20 20 18 18 17 16 17 16 16 17 18 19 21 20 22 24 26 24 24 25 23 21 22 23 24 25 25 23 21 22 23 23 22 22 21 21 22 25 29 35 38 39 39 36
24 22 22 21 20 20 20 20 19 18 19 19 20 20 20 21 21 22 26 22 22 24 26 24 22 23 25 25 25 25 27 26 26 26 26 26 28 30 32 34 36 38 40 40
28 26 27 26 22 23 22 23 23 21 20 20 20 21 21 22 25 24 21 24 23 20 21 24 25 26 26 27 26 28 30 30 32 35 27 31 33 34 37 39 41 43 45 46
34 33 33 30 27 28 26 25 25 26 25 23 24 25 24 23 26 28 29 27 27 26 25 24 27 27 26 28 29 32 32 32 34 33 27 34 32 31 32 36 40 45 48 49
40 39 36 34 32 32 31 30 28 29 28 27 24 27 22 29 25 29 30 32 32 32 34 35 33 30 27 28 31 36 41 46 47 48 46 42 38 36 48 47 46 47 47 51
45 44 39 39 35 34 36 34 33 32 32 32 32 27 26 29 29 29 32 33 36 37 39 39 42 41 43 25 26 46 51 56 61 59 43 42 47 60 60 64 61 54 51 52
51 47 45 38 38 38 38 37 36 37 35 37 34 36 25 33 33 31 34 36 36 39 41 45 47 63 50 31 35 55 70 66 63 55 50 43 67 69 67 70 63 49 58 58
56 52 50 42 43 43 40 40 41 40 39 39 40 38 27 35 37 37 35 37 39 38 43 49 50 43 19 23 52 53 52 66 59 68 67 41 85 82 64 78 74 69 80 74
61 56 52 50 44 45 46 46 43 43 44 42 46 45 31 38 36 42 39 39 40 36 41 50 48 31 7 8 4 56 77 59 51 46 35 67 66 75 64 82 82 72 70 63
65 60 54 54 53 50 51 49 47 47 47 49 50 50 40 35 38 42 42 43 40 37 42 48 41 35 11 25 45 73 68 54 50 61 59 61 56 61 79 87 81 68 62 56
71 62 60 60 60 58 54 54 53 51 51 50 56 58 43 44 44 47 44 46 48 45 43 48 38 26 31 50 56 70 62 66 69 65 68 70 58 76 85 87 80 67 60 55
72 67 68 64 66 64 62 56 55 56 54 57 59 66 49 48 49 53 48 50 51 55 52 52 55 40 41 54 61 67 71 72 75 77 76 79 80 84 87 89 72 63 59 57
74 74 70 66 70 71 66 60 60 59 60 60 62 67 57 53 55 56 55 53 57 59 60 57 60 60 58 59 66 71 74 80 82 82 84 87 88 90 93 81 67 64 64 64
76 77 75 71 74 76 61 70 66 63 62 63 68 64 62 61 59 56 57 59 62 64 65 67 67 69 69 72 73 69 75 84 87 87 90 91 94 95 86 73 69 69 71 75
78 82 80 78 78 73 72 74 68 64 68 71 69 59 63 65 62 56 60 64 65 67 69 72 74 75 76 77 75 75 86 88 89 92 93 96 99 88 75 73 75 78 81 84
83 84 84 81 78 75 73 81 70 71 71 75 73 68 65 62 68 58 65 67 69 72 74 76 77 80 80 79 77 85 89 91 93 95 98 100 92 80 77 80 83 86 88 85
87 84 84 83 83 81 81 80 77 78 73 77 75 68 66 62 70 69 69 71 73 76 78 81 80 80 79 80 87 90 91 95 97 98 100 93 83 83 85 88 89 87 85 85
89 86 85 84 87 87 86 83 82 78 74 74 71 70 66 67 72 75 74 76 79 81 81 81 81 81 84 88 91 93 95 98 99 98 91 85 86 89 90 89 89 90 90 89
95 91 87 89 83 83 82 70 71 74 76 78 80 76 77 80 78 80 83 84 83 83 83 84 88 89 88 90 94 96 99 99 97 90 86 87 89 90 90 91 92 91 90 86
98 95 97 94 93 89 86 80 81 84 82 86 86 83 80 81 83 86 86 86 87 86 89 91 92 93 93 95 97 100 98 93 86 86 88 89 88 90 92 93 94 92 88 79
97 91 99 94 93 90 91 88 87 86 86 85 87 87 87 88 89 88 90 90 90 92 92 92 95 98 98 100 99 94 90 86 86 87 87 89 90 92 95 95 94 89 80 65
90 94 95 90 83 75 89 94 93 91 90 90 91 92 91 91 90 89 91 91 92 93 95 95 97 101 98 94 89 86 85 86 86 86 88 91 93 95 95 92 89 80 66 54
Wind_Direction
319 354 1 9 15 15 24 24 28 26 23 26 30 30 28 26 24 28 28 24 24 34 41 38 32 353 272 263 261 255 251 252 255 259 265 259 256 253 255 261 266 285 274 271
276 298 319 340 359 2 9 14 16 19 18 21 24 27 28 27 28 26 24 24 22 22 23 32 35 34 29 332 284 275 269 267 264 264 262 266 265 266 274 283 285 200 270 290
269 279 293 312 328 342 353 359 0 6 11 12 19 22 25 26 27 32 31 27 24 18 17 15 12 11 10 11 7 357 328 299 285 276 271 271 274 270 297 281 290 275 266 231
267 276 285 294 304 311 325 340 341 345 360 3 10 13 18 20 23 16 16 22 26 27 22 16 9 6 2 355 349 340 332 325 316 303 291 278 268 262 247 245 257 251 255 261
265 273 282 288 293 301 307 314 319 331 336 349 354 3 9 12 15 13 15 10 5 7 15 15 16 11 3 359 352 346 340 333 323 313 301 293 286 277 262 261 266 275 276 275
258 267 275 279 287 292 295 301 305 313 323 325 338 345 355 359 7 13 8 7 4 354 350 352 356 0 360 356 357 358 351 341 335 325 314 304 295 285 279 275 275 274 273 272
257 262 265 270 279 285 292 294 296 301 304 314 316 328 339 346 346 355 9 6 359 354 347 344 346 346 345 349 349 348 345 341 338 331 326 328 315 304 297 291 284 277 273 270
251 255 261 270 273 278 287 291 296 297 297 302 313 313 324 333 334 337 344 351 354 353 352 346 340 335 336 336 338 341 338 339 331 332 316 326 327 321 315 301 288 283 279 278
250 254 258 265 268 274 280 285 292 295 292 294 295 302 312 312 320 326 330 337 342 348 350 351 343 333 327 326 333 338 336 335 335 332 327 325 325 329 327 320 315 307 289 278
248 252 254 261 266 271 275 279 286 291 293 291 294 295 308 306 311 315 320 326 332 344 346 343 334 329 322 322 341 346 337 337 336 332 332 333 329 324 325 322 314 311 299 290
250 252 255 255 264 267 273 276 280 285 290 288 289 290 302 302 303 310 314 320 327 337 340 334 331 329 321 278 305 340 338 338 337 325 314 323 333 328 325 329 312 312 314 296
249 249 253 252 258 267 271 273 274 283 287 287 286 284 298 299 303 307 313 316 321 332 332 330 336 340 226 247 292 295 339 312 329 332 312 313 341 318 321 327 320 310 305 301
249 249 251 255 255 264 265 267 274 278 282 284 286 284 289 293 305 302 310 313 314 322 322 327 336 342 181 300 267 291 306 317 323 332 294 306 321 306 303 319 317 309 301 296
248 250 252 257 258 256 265 267 269 273 281 283 284 285 288 293 296 296 301 306 309 311 314 321 327 337 317 225 252 287 298 311 297 312 297 306 317 299 307 317 315 312 306 302
247 248 250 254 257 259 259 264 269 273 276 277 282 282 286 290 299 297 300 303 305 308 306 308 317 322 300 280 292 288 307 309 310 303 310 316 307 307 315 316 316 311 307 305
246 246 249 251 257 260 261 263 269 272 275 277 279 279 286 292 296 294 301 300 302 303 305 305 309 305 297 295 286 295 302 307 308 312 313 314 316 317 316 317 311 307 307 305
242 246 248 252 256 258 261 268 266 268 273 274 277 281 287 290 292 295 297 300 299 300 302 302 306 304 302 294 297 305 307 308 311 314 314 316 317 316 315 313 307 305 305 306
243 248 250 252 254 259 266 264 267 268 268 271 273 279 286 287 290 291 294 297 298 301 300 302 304 305 306 307 306 304 306 310 312 312 314 315 315 315 313 310 307 306 307 308
245 248 250 252 255 258 259 264 264 268 270 271 275 278 283 286 287 289 292 294 297 298 299 300 304 306 306 304 304 305 308 309 309 311 312 314 314 312 312 311 310 309 308 307
242 247 249 251 254 258 259 260 266 267 269 272 277 278 283 284 284 290 291 294 295 297 299 301 304 304 303 303 302 306 307 307 308 310 311 313 313 312 311 310 309 307 307 308
242 242 247 249 251 253 255 259 260 263 267 271 276 278 279 284 282 289 290 290 293 295 296 300 300 300 301 300 302 304 304 306 307 309 310 310 310 310 309 309 309 309 309 309
246 247 247 248 251 253 255 258 261 266 270 271 274 277 284 280 284 289 288 290 292 294 296 297 297 298 298 300 302 303 304 305 307 308 309 308 308 308 308 310 309 310 309 309
243 249 251 251 251 253 258 262 266 270 271 272 275 278 279 281 286 285 287 290 291 291 294 295 296 297 298 299 301 303 305 306 307 308 306 306 307 308 309 308 309 308 309 310
242 244 248 251 253 256 262 264 265 266 268 269 274 276 277 280 282 285 287 288 289 291 292 294 296 297 298 299 302 304 305 307 306 306 306 307 307 307 307 308 308 308 309 309
242 242 246 251 255 260 258 259 262 265 267 270 274 277 278 280 282 284 285 286 288 290 293 294 295 297 300 302 304 304 305 305 305 305 305 305 306 306 307 307 308 309 308 308
242 243 248 249 258 242 256 259 260 263 266 269 272 275 278 280 281 283 284 287 289 290 293 295 296 299 301 301 302 303 304 304 304 304 305 306 307 308 308 308 308 307 306 307
Height
11008 11009 11009 11009 11007 11006 11004 11001 10999 10998 10996 10994 10991 10988 10984 10981 10980 10977 10975 10972 10970 10969 10967 10965 10964 10963 10962 10961 10961 10962 10963 10964 10964 10964 10965 10966 10965 10964 10968 10971 10970 10978 10974 10967
11006 11007 11008 11008 11007 11006 11004 11003 11001 11000 10998 10996 10992 10990 10987 10985 10982 10980 10977 10974 10972 10969 10968 10967 10965 10964 10962 10961 10961 10961 10961 10962 10962 10961 10962 10963 10961 10965 10972 10973 10972 10973 10977 10969
11003 11004 11005 11005 11005 11005 11005 11003 11002 11001 10999 10997 10995 10992 10990 10987 10984 10983 10981 10978 10975 10971 10969 10967 10966 10964 10963 10962 10961 10960 10960 10960 10960 10958 10959 10960 10957 10963 10968 10960 10963 10965 10990 10961
10999 11000 11001 11002 11003 11003 11003 11003 11003 11002 11000 10998 10996 10994 10992 10988 10985 10983 10982 10980 10978 10976 10972 10969 10967 10964 10962 10961 10960 10959 10959 10959 10958 10956 10956 10957 10952 10956 10957 10952 10958 10955 10948 10942
10995 10995 10996 10997 10999 11000 11000 11001 11001 11000 11000 10999 10996 10995 10993 10989 10987 10984 10982 10979 10978 10977 10975 10971 10969 10966 10964 10962 10960 10959 10958 10957 10956 10954 10953 10953 10950 10947 10948 10949 10946 10941 10934 10937
10991 10992 10992 10993 10994 10996 10997 10997 10998 10998 10997 10997 10995 10994 10994 10993 10990 10987 10982 10980 10978 10976 10973 10972 10969 10967 10965 10963 10961 10959 10957 10955 10954 10952 10950 10949 10946 10943 10941 10938 10935 10933 10932 10931
10987 10988 10988 10989 10991 10991 10992 10993 10993 10994 10994 10994 10993 10991 10990 10991 10987 10986 10986 10982 10979 10977 10976 10973 10970 10968 10966 10964 10962 10959 10956 10953 10950 10947 10945 10942 10940 10937 10935 10932 10930 10928 10926 10925
10980 10982 10982 10985 10987 10986 10987 10988 10988 10988 10989 10990 10989 10987 10986 10987 10984 10982 10980 10980 10979 10977 10976 10974 10973 10970 10968 10964 10962 10959 10957 10956 10952 10947 10944 10940 10936 10931 10929 10925 10922 10919 10914 10911
10972 10974 10977 10979 10981 10982 10982 10982 10984 10983 10984 10984 10986 10984 10986 10980 10981 10978 10977 10975 10976 10977 10975 10972 10967 10961 10958 10955 10956 10954 10953 10950 10948 10944 10939 10933 10928 10924 10919 10914 10906 10902 10898 10894
10964 10966 10971 10971 10975 10976 10976 10977 10977 10977 10977 10977 10976 10979 10979 10976 10975 10975 10973 10972 10970 10972 10970 10963 10955 10952 10948 10944 10938 10944 10944 10947 10946 10940 10931 10926 10924 10920 10911 10902 10893 10887 10881 10875
10953 10958 10961 10967 10967 10967 10969 10970 10970 10970 10971 10968 10969 10966 10975 10969 10969 10969 10967 10966 10967 10966 10962 10954 10945 10931 10930 10928 10924 10925 10943 10943 10940 10925 10915 10907 10907 10902 10896 10885 10876 10868 10864 10858
10941 10947 10949 10958 10958 10958 10962 10962 10962 10962 10963 10962 10960 10962 10970 10963 10961 10959 10962 10960 10958 10961 10955 10946 10940 10928 10915 10921 10926 10932 10967 10949 10937 10913 10892 10893 10893 10894 10889 10875 10862 10853 10846 10839
10929 10937 10941 10944 10952 10951 10950 10951 10954 10955 10954 10955 10950 10948 10961 10957 10957 10950 10953 10954 10953 10958 10950 10940 10942 10941 10949 10945 10917 10921 10947 10957 10944 10930 10882 10893 10908 10881 10870 10863 10853 10838 10829 10820
10916 10924 10934 10934 10936 10941 10940 10943 10945 10946 10946 10942 10941 10938 10947 10953 10951 10948 10946 10945 10949 10951 10944 10940 10942 10935 10950 10946 10943 10932 10941 10931 10938 10930 10920 10897 10880 10862 10851 10840 10832 10820 10812 10804
10903 10917 10919 10920 10922 10926 10932 10933 10934 10937 10938 10937 10930 10924 10940 10940 10940 10936 10938 10937 10934 10940 10941 10931 10943 10954 10920 10919 10920 10916 10914 10901 10909 10911 10891 10880 10861 10849 10834 10825 10810 10803 10796 10788
10893 10904 10903 10911 10909 10913 10917 10926 10927 10925 10928 10924 10920 10907 10931 10931 10928 10922 10924 10925 10924 10920 10927 10923 10925 10941 10932 10917 10920 10905 10891 10885 10878 10872 10860 10849 10839 10826 10813 10803 10793 10787 10778 10772
10882 10885 10893 10903 10896 10896 10905 10916 10915 10917 10914 10914 10909 10900 10915 10922 10917 10910 10909 10912 10906 10905 10903 10909 10909 10906 10910 10904 10893 10880 10867 10861 10855 10841 10831 10822 10813 10803 10794 10784 10774 10767 10761 10755
10873 10873 10880 10887 10882 10881 10908 10893 10899 10903 10905 10903 10895 10900 10905 10906 10902 10902 10895 10894 10895 10891 10885 10882 10884 10878 10873 10865 10856 10852 10850 10840 10829 10819 10810 10802 10793 10784 10773 10763 10756 10748 10742 10734
10861 10858 10863 10869 10872 10881 10883 10879 10888 10892 10888 10884 10883 10899 10896 10890 10888 10894 10886 10880 10879 10877 10873 10868 10864 10859 10854 10848 10841 10835 10827 10819 10810 10801 10792 10783 10774 10764 10754 10745 10737 10730 10724 10716
10841 10843 10846 10854 10860 10865 10871 10859 10876 10875 10877 10871 10873 10881 10883 10879 10867 10885 10873 10870 10863 10859 10857 10854 10849 10843 10836 10830 10823 10817 10810 10800 10791 10783 10774 10764 10753 10745 10737 10728 10720 10713 10704 10694
10818 10827 10831 10838 10840 10847 10849 10852 10860 10860 10867 10857 10860 10866 10863 10871 10853 10864 10863 10857 10855 10849 10842 10839 10836 10830 10824 10815 10808 10803 10794 10784 10775 10765 10755 10745 10736 10727 10718 10711 10700 10691 10682 10673
10808 10811 10816 10822 10820 10826 10832 10839 10843 10852 10853 10844 10847 10848 10854 10850 10846 10846 10841 10838 10835 10833 10829 10826 10820 10815 10811 10799 10791 10785 10776 10765 10757 10746 10735 10726 10718 10708 10699 10690 10678 10668 10658 10650
10789 10796 10803 10798 10809 10805 10808 10836 10834 10833 10834 10831 10827 10841 10834 10833 10838 10830 10828 10824 10820 10814 10811 10807 10802 10797 10793 10784 10776 10768 10756 10745 10735 10725 10717 10709 10699 10688 10677 10668 10658 10647 10637 10630
10771 10780 10773 10784 10790 10803 10811 10820 10813 10813 10820 10811 10815 10821 10823 10824 10820 10813 10809 10807 10804 10799 10795 10787 10781 10774 10772 10763 10756 10747 10735 10727 10716 10707 10698 10687 10678 10669 10658 10646 10635 10626 10617 10609
10749 10767 10758 10767 10779 10797 10795 10795 10798 10800 10798 10798 10798 10801 10801 10803 10801 10798 10790 10790 10787 10781 10775 10771 10763 10753 10749 10740 10733 10725 10713 10707 10698 10688 10679 10670 10661 10650 10638 10625 10612 10603 10595 10590
10731 10744 10745 10770 10776 10757 10771 10777 10782 10784 10783 10783 10783 10781 10783 10782 10781 10781 10772 10771 10769 10763 10757 10751 10744 10734 10728 10720 10712 10705 10695 10687 10679 10670 10660 10649 10639 10627 10615 10604 10592 10581 10576 10574